�N����,����,�~����,�C��,���x,�C��,����,���ϕ���,�ő�u�ԕ���,�ő厞����,���˗�,�I�_���x,�n�����x,�ő啗���N��,DTYPE
"20/02/25","00:10",0.0,4.9,87.3,1018.2,296.2,1.3,1.8,316.5,0.00,3.0,8.4,"00:00:08",1
"20/02/25","00:20",0.0,4.9,87.5,1018.0,304.0,1.3,1.8,303.3,0.00,3.0,8.3,"00:16:00",1
"20/02/25","00:30",0.0,5.1,87.8,1018.7,317.9,1.1,2.2,318.3,0.00,3.3,8.4,"00:25:00",1
"20/02/25","00:40",0.0,5.0,87.9,1018.2,310.4,1.6,2.0,324.3,0.00,3.2,8.2,"00:31:52",1
"20/02/25","00:50",0.0,4.9,88.1,1018.0,310.9,1.2,1.6,319.3,0.00,3.1,8.3,"00:40:56",1
"20/02/25","01:00",0.0,4.5,88.3,1018.5,287.3,1.3,1.8,311.3,0.00,2.8,8.0,"00:51:28",1
"20/02/25","01:10",0.0,4.5,88.6,1018.2,308.7,1.7,2.2,321.4,0.00,2.8,8.0,"01:03:12",1
"20/02/25","01:20",0.0,4.2,88.8,1018.0,317.4,1.8,2.2,312.9,0.00,2.6,8.1,"01:13:14",1
"20/02/25","01:30",0.0,3.9,89.2,1018.2,329.7,1.8,2.1,331.6,0.00,2.3,8.1,"01:20:32",1
"20/02/25","01:40",0.0,4.0,89.5,1017.8,324.7,1.7,2.1,332.3,0.00,2.5,8.0,"01:36:34",1
"20/02/25","01:50",0.0,3.7,89.8,1018.0,298.9,1.3,2.0,321.8,0.00,2.2,7.9,"01:49:24",1
"20/02/25","02:00",0.0,4.0,90.1,1017.8,293.3,1.7,2.1,307.9,0.00,2.6,7.9,"01:59:20",1
"20/02/25","02:10",0.0,4.1,90.2,1018.0,304.0,1.8,2.8,331.5,0.00,2.7,7.9,"02:01:28",1
"20/02/25","02:20",0.0,4.1,90.5,1017.3,290.4,1.6,2.0,299.4,0.00,2.7,7.7,"02:12:38",1
"20/02/25","02:30",0.0,4.0,90.6,1017.8,295.7,1.2,1.8,301.9,0.00,2.6,7.6,"02:20:34",1
"20/02/25","02:40",0.0,3.9,90.8,1017.5,314.8,1.3,1.9,325.0,0.00,2.6,7.7,"02:35:42",1
"20/02/25","02:50",0.0,3.4,91.0,1017.8,325.6,1.7,2.2,324.6,0.00,2.1,7.7,"02:41:24",1
"20/02/25","03:00",0.0,3.3,91.4,1017.3,297.7,1.3,2.0,305.5,0.00,2.1,7.7,"02:59:22",1
"20/02/25","03:10",0.0,3.6,91.5,1017.1,290.3,1.5,1.9,309.8,0.00,2.4,7.4,"03:01:28",1
"20/02/25","03:20",0.0,3.7,91.5,1017.3,294.1,1.3,1.8,308.3,0.00,2.5,7.5,"03:10:36",1
"20/02/25","03:30",0.0,3.5,91.6,1016.8,318.9,1.5,1.9,324.7,0.00,2.3,7.6,"03:20:08",1
"20/02/25","03:40",0.0,2.9,91.9,1016.8,329.5,2.1,2.7,320.6,0.00,1.8,7.5,"03:30:48",1
"20/02/25","03:50",0.0,2.7,92.1,1016.4,305.0,1.3,1.9,323.6,0.00,1.6,7.5,"03:40:48",1
"20/02/25","04:00",0.0,2.6,92.3,1016.4,295.6,1.3,2.2,318.8,0.00,1.5,7.5,"03:59:52",1
"20/02/25","04:10",0.0,2.7,92.4,1016.4,307.3,1.8,2.2,320.4,0.00,1.6,7.4,"04:00:08",1
"20/02/25","04:20",0.0,2.6,92.5,1016.1,303.2,1.5,2.1,313.2,0.00,1.5,7.4,"04:16:40",1
"20/02/25","04:30",0.0,2.5,92.6,1016.1,296.4,0.8,1.7,304.8,0.00,1.5,7.3,"04:20:02",1
"20/02/25","04:40",0.0,2.2,92.8,1015.9,320.5,2.3,3.1,324.0,0.00,1.2,7.1,"04:34:48",1
"20/02/25","04:50",0.0,2.2,93.1,1016.1,314.6,1.8,2.4,320.0,0.00,1.2,7.3,"04:42:08",1
"20/02/25","05:00",0.0,2.3,93.2,1016.1,294.9,1.2,1.9,306.7,0.00,1.4,7.2,"04:56:16",1
"20/02/25","05:10",0.0,2.4,93.3,1016.6,288.5,1.0,2.5,318.9,0.00,1.5,7.3,"05:07:28",1
"20/02/25","05:20",0.0,2.3,93.4,1015.6,313.0,1.8,2.6,330.3,0.00,1.4,6.8,"05:17:52",1
"20/02/25","05:30",0.0,2.0,93.6,1015.9,311.4,2.1,2.9,318.1,0.00,1.1,6.9,"05:25:52",1
"20/02/25","05:40",0.0,2.1,93.8,1016.1,301.3,1.3,2.0,309.7,0.00,1.2,7.1,"05:37:52",1
"20/02/25","05:50",0.0,2.1,93.9,1015.9,306.0,1.8,2.9,312.9,0.00,1.3,6.9,"05:49:52",1
"20/02/25","06:00",0.0,1.8,94.0,1015.9,315.6,2.1,3.1,323.2,0.00,1.0,6.8,"05:50:24",1
"20/02/25","06:10",0.0,1.8,94.3,1015.6,283.6,1.3,1.6,284.6,0.00,1.0,6.6,"06:03:04",1
"20/02/25","06:20",0.0,2.0,94.3,1015.9,302.8,1.6,2.6,318.7,0.00,1.2,6.8,"06:17:44",1
"20/02/25","06:30",0.0,1.9,94.4,1015.4,318.0,2.1,2.8,319.2,0.00,1.1,6.8,"06:23:36",1
"20/02/25","06:40",0.0,1.9,94.5,1015.6,298.0,1.7,2.5,319.7,0.00,1.2,6.6,"06:30:24",1
"20/02/25","06:50",0.0,1.7,94.7,1015.6,293.1,1.2,1.8,312.0,0.00,1.0,6.8,"06:47:04",1
"20/02/25","07:00",0.0,2.0,94.9,1016.1,320.5,2.0,2.7,336.0,0.00,1.3,6.5,"06:57:36",1
"20/02/25","07:10",0.0,1.9,94.9,1015.9,307.4,2.1,2.7,321.9,0.00,1.2,6.7,"07:01:28",1
"20/02/25","07:20",0.0,2.2,95.2,1015.9,288.1,1.3,2.2,262.2,0.00,1.6,6.7,"07:18:00",1
"20/02/25","07:30",0.0,3.0,95.1,1015.9,292.6,0.7,1.7,292.5,0.00,2.3,6.8,"07:20:16",1
"20/02/25","07:40",0.0,3.1,95.1,1016.1,283.8,1.3,1.9,305.2,0.00,2.4,6.7,"07:33:36",1
"20/02/25","07:50",0.0,3.3,95.1,1015.4,295.0,1.1,1.4,310.0,0.00,2.6,6.7,"07:43:28",1
"20/02/25","08:00",0.0,3.6,95.2,1015.9,305.6,1.2,2.0,326.4,0.00,2.9,6.9,"07:57:36",1
"20/02/25","08:10",0.0,3.8,95.2,1016.1,314.9,1.6,2.1,322.8,0.00,3.1,6.6,"08:05:04",1
"20/02/25","08:20",0.0,4.0,95.2,1016.1,271.8,0.8,1.7,313.8,0.00,3.3,6.7,"08:10:08",1
"20/02/25","08:30",0.0,4.2,95.3,1016.1,295.9,0.8,2.0,308.1,0.00,3.6,6.7,"08:29:52",1
"20/02/25","08:40",0.0,4.5,95.3,1016.4,310.2,1.6,2.1,314.8,0.00,3.9,6.9,"08:30:08",1
"20/02/25","08:50",0.0,4.8,95.3,1016.8,285.6,0.7,1.3,310.6,0.00,4.2,6.8,"08:40:40",1
"20/02/25","09:00",0.0,5.0,95.3,1016.8,298.7,1.1,1.8,309.3,0.00,4.4,6.8,"08:53:12",1
"20/02/25","09:10",0.0,5.2,95.3,1016.6,248.1,0.6,1.2,292.4,0.00,4.6,7.0,"09:09:38",1
"20/02/25","09:20",0.0,5.3,95.3,1016.8,311.7,1.2,1.8,310.2,0.00,4.7,7.0,"09:12:56",1
"20/02/25","09:30",0.0,5.5,95.3,1017.1,302.6,0.7,1.6,337.3,0.01,4.8,7.3,"09:20:08",1
"20/02/25","09:40",0.0,5.7,95.3,1017.1,281.5,1.2,1.4,275.1,0.01,5.0,7.0,"09:32:08",1
"20/02/25","09:50",0.0,5.8,95.3,1017.1,301.9,1.3,1.7,318.0,0.01,5.1,7.1,"09:47:28",1
"20/02/25","10:00",0.0,6.0,95.2,1017.3,315.4,1.3,2.0,312.1,0.00,5.3,7.2,"09:54:08",1
"20/02/25","10:10",0.0,6.1,95.2,1016.8,283.0,1.5,2.4,250.5,0.01,5.4,7.3,"10:05:28",1
"20/02/25","10:20",0.0,6.2,95.0,1016.6,320.1,1.2,2.1,320.2,0.03,5.5,7.2,"10:15:04",1
"20/02/25","10:30",0.0,6.5,94.9,1016.8,290.1,1.5,2.5,314.6,0.03,5.8,7.4,"10:28:08",1
"20/02/25","10:40",0.0,6.6,94.8,1016.4,323.3,1.3,2.1,317.1,0.02,5.9,7.2,"10:30:16",1
"20/02/25","10:50",0.0,6.5,94.5,1016.4,313.1,2.1,2.9,318.4,0.02,5.7,7.4,"10:42:08",1
"20/02/25","11:00",0.0,6.8,94.5,1016.4,289.2,1.3,1.9,315.1,0.03,6.0,7.5,"10:55:44",1
"20/02/25","11:10",0.0,7.1,94.3,1016.1,289.9,1.1,1.6,284.9,0.03,6.3,7.4,"11:00:24",1
"20/02/25","11:20",0.0,7.2,94.0,1016.1,314.9,1.5,1.9,321.3,0.02,6.3,7.5,"11:13:04",1
"20/02/25","11:30",0.0,7.5,94.0,1016.4,303.3,1.1,1.6,323.9,0.03,6.6,7.5,"11:20:32",1
"20/02/25","11:40",0.0,7.4,93.5,1016.1,319.2,0.5,1.2,301.8,0.04,6.5,7.6,"11:30:56",1
"20/02/25","11:50",0.0,7.5,93.1,1015.9,17.2,0.2,0.8,284.6,0.04,6.5,7.7,"11:48:32",1
"20/02/25","12:00",0.0,7.9,92.8,1016.1,312.1,1.2,2.0,323.5,0.07,6.8,7.8,"11:57:36",1
"20/02/25","12:10",0.0,8.3,92.3,1015.9,303.2,1.5,2.1,321.7,0.07,7.2,7.9,"12:02:48",1
"20/02/25","12:20",0.0,8.6,91.6,1015.9,298.2,1.1,2.1,315.4,0.10,7.4,7.9,"12:14:08",1
"20/02/25","12:30",0.0,9.0,90.8,1015.6,287.2,1.0,1.6,278.9,0.12,7.6,8.2,"12:22:00",1
"20/02/25","12:40",0.0,9.3,89.8,1014.9,277.8,1.0,1.4,298.3,0.11,7.8,8.2,"12:30:32",1
"20/02/25","12:50",0.0,9.6,88.5,1015.2,302.8,1.0,1.9,313.2,0.09,7.8,8.2,"12:46:00",1
"20/02/25","13:00",0.0,9.7,86.8,1014.7,295.3,0.7,1.8,326.5,0.11,7.6,8.5,"12:53:04",1
"20/02/25","13:10",0.0,9.7,84.3,1014.7,247.7,0.6,1.2,249.4,0.08,7.2,8.6,"13:01:36",1
"20/02/25","13:20",0.0,9.6,81.4,1014.5,180.0,0.3,0.9,161.4,0.02,6.6,8.5,"13:15:12",1
"20/02/25","13:30",0.0,9.4,79.1,1014.2,251.0,0.8,1.9,245.0,0.03,6.0,8.6,"13:27:20",1
"20/02/25","13:40",0.0,9.7,77.3,1014.0,282.4,1.3,1.9,276.7,0.06,6.0,8.7,"13:33:04",1
"20/02/25","13:50",0.0,9.8,75.2,1013.8,278.8,1.3,1.7,274.4,0.04,5.7,8.7,"13:47:12",1
"20/02/25","14:00",0.0,9.9,73.7,1013.8,310.4,1.5,2.0,325.2,0.03,5.5,8.7,"13:54:48",1
"20/02/25","14:10",0.0,9.9,73.0,1013.3,321.2,1.5,2.2,323.0,0.03,5.3,8.8,"14:08:32",1
"20/02/25","14:20",0.0,10.0,72.8,1013.3,319.6,1.5,2.5,324.7,0.04,5.4,8.7,"14:17:28",1
"20/02/25","14:30",0.0,10.0,72.4,1012.8,302.2,1.5,2.2,321.9,0.02,5.3,9.0,"14:21:52",1
"20/02/25","14:40",0.0,10.1,72.1,1012.3,275.9,0.8,1.4,314.1,0.04,5.3,8.9,"14:30:08",1
"20/02/25","14:50",0.0,10.3,71.1,1012.3,276.1,0.6,0.9,299.2,0.05,5.3,8.7,"14:47:20",1
"20/02/25","15:00",0.0,10.7,70.4,1012.3,301.6,1.0,1.8,322.7,0.06,5.6,9.0,"14:55:36",1
"20/02/25","15:10",0.0,10.8,69.4,1012.1,303.0,1.1,1.7,320.9,0.03,5.5,9.0,"15:09:04",1
"20/02/25","15:20",0.0,10.6,68.8,1012.6,291.0,1.0,1.6,300.5,0.02,5.2,8.8,"15:10:40",1
"20/02/25","15:30",0.0,10.6,69.0,1012.3,280.4,1.0,1.2,314.5,0.02,5.2,8.8,"15:23:36",1
"20/02/25","15:40",0.0,10.6,69.7,1011.9,296.5,1.1,1.4,308.0,0.01,5.3,9.1,"15:39:42",1
"20/02/25","15:50",0.0,10.6,70.8,1011.6,330.1,1.3,1.9,342.7,0.01,5.6,9.0,"15:41:14",1
"20/02/25","16:00",0.0,10.6,71.6,1011.6,311.5,1.3,1.9,318.2,0.01,5.7,8.9,"15:59:54",1
"20/02/25","16:10",0.0,10.6,72.8,1012.1,320.6,1.7,2.2,323.6,0.01,6.0,9.0,"16:04:24",1
"20/02/25","16:20",0.0,10.4,73.9,1011.4,323.6,1.1,1.8,325.6,0.00,6.0,9.0,"16:10:24",1
"20/02/25","16:30",0.0,10.3,74.8,1011.4,308.7,1.1,1.8,317.3,0.00,6.1,9.0,"16:22:32",1
"20/02/25","16:40",0.0,10.3,75.5,1011.4,290.6,0.8,1.1,305.1,0.00,6.2,9.0,"16:31:28",1
"20/02/25","16:50",0.0,10.2,76.4,1011.2,316.2,1.0,1.6,337.5,0.00,6.3,9.0,"16:48:32",1
"20/02/25","17:00",0.0,10.1,77.2,1010.9,293.9,0.8,1.1,273.1,0.00,6.3,9.1,"16:56:56",1
"20/02/25","17:10",0.0,10.1,78.2,1010.7,291.6,1.1,2.1,310.5,0.00,6.5,9.1,"17:07:22",1
"20/02/25","17:20",0.0,10.0,79.3,1010.9,289.0,1.0,1.9,250.7,0.00,6.6,9.0,"17:16:24",1
"20/02/25","17:30",0.0,10.0,80.1,1010.7,317.8,1.5,2.1,321.6,0.00,6.8,9.1,"17:25:04",1
"20/02/25","17:40",0.0,9.8,81.2,1010.4,329.2,1.5,1.9,348.2,0.00,6.8,9.1,"17:39:36",1
"20/02/25","17:50",0.0,9.7,82.2,1010.7,318.0,1.7,2.2,317.0,0.00,6.9,8.9,"17:43:20",1
"20/02/25","18:00",0.0,9.6,83.1,1010.4,318.3,1.2,2.1,324.2,0.00,6.9,9.0,"17:52:24",1
"20/02/25","18:10",0.0,9.5,83.7,1010.2,281.5,0.5,1.0,324.7,0.00,6.9,9.0,"18:06:40",1
"20/02/25","18:20",0.0,9.4,84.3,1010.2,309.3,1.6,1.9,314.4,0.00,6.9,9.0,"18:14:16",1
"20/02/25","18:30",0.0,9.4,85.0,1010.2,327.5,1.6,2.0,329.6,0.00,7.0,9.2,"18:22:16",1
"20/02/25","18:40",0.0,9.3,85.4,1010.4,311.1,1.5,1.8,323.8,0.00,7.0,9.0,"18:38:48",1
"20/02/25","18:50",0.0,9.2,85.8,1010.4,322.5,1.6,2.0,319.6,0.00,7.0,8.9,"18:44:00",1
"20/02/25","19:00",0.0,9.0,86.2,1010.2,284.0,0.7,1.3,315.8,0.00,6.9,9.0,"18:50:08",1
"20/02/25","19:10",0.0,9.0,86.6,1009.7,302.9,1.1,2.0,312.1,0.00,6.9,9.0,"19:08:16",1
"20/02/25","19:20",0.0,9.0,87.0,1010.4,318.7,1.8,2.4,320.9,0.00,7.0,8.8,"19:14:24",1
"20/02/25","19:30",0.0,9.0,87.3,1010.0,300.0,1.1,1.4,274.2,0.00,7.0,8.9,"19:22:40",1
"20/02/25","19:40",0.0,9.1,87.8,1010.0,317.1,1.3,2.4,326.6,0.00,7.2,9.0,"19:33:04",1
"20/02/25","19:50",0.0,9.0,88.1,1009.7,286.2,0.8,1.4,261.5,0.00,7.2,8.9,"19:48:08",1
"20/02/25","20:00",0.0,9.0,88.4,1009.5,300.2,1.6,2.7,318.8,0.00,7.2,8.9,"19:58:40",1
"20/02/25","20:10",0.0,9.0,88.7,1010.0,317.4,1.6,2.2,324.6,0.00,7.3,9.0,"20:01:44",1
"20/02/25","20:20",0.0,8.9,89.0,1009.7,325.9,1.5,2.0,307.9,0.00,7.2,8.8,"20:16:24",1
"20/02/25","20:30",0.0,8.9,89.2,1009.7,301.3,1.5,2.2,322.9,0.00,7.3,8.8,"20:24:08",1
"20/02/25","20:40",0.0,8.9,89.4,1009.3,294.7,1.5,2.0,316.3,0.00,7.3,8.8,"20:33:36",1
"20/02/25","20:50",0.0,9.0,89.6,1009.5,304.0,1.5,2.1,316.7,0.00,7.4,8.8,"20:45:44",1
"20/02/25","21:00",0.0,9.1,89.8,1009.5,317.0,1.6,2.4,321.3,0.00,7.6,8.9,"20:51:04",1
"20/02/25","21:10",0.0,9.0,89.9,1009.0,302.6,0.8,1.2,298.0,0.00,7.5,8.8,"21:00:16",1
"20/02/25","21:20",0.0,9.0,90.0,1009.0,302.4,1.3,2.1,319.1,0.00,7.5,8.9,"21:17:04",1
"20/02/25","21:30",0.0,8.9,90.1,1009.5,324.7,1.6,1.7,329.7,0.00,7.4,8.9,"21:21:12",1
"20/02/25","21:40",0.2,8.8,90.3,1009.3,286.0,1.0,1.1,297.0,0.00,7.3,8.9,"21:38:54",1
"20/02/25","21:50",0.0,8.8,90.5,1009.3,308.5,0.6,1.1,312.1,0.00,7.4,8.8,"21:40:56",1
"20/02/25","22:00",0.0,8.9,90.7,1009.3,315.8,1.6,2.1,313.2,0.00,7.5,8.9,"21:53:54",1
"20/02/25","22:10",0.0,8.7,90.9,1009.0,321.2,1.7,2.1,319.3,0.00,7.3,8.8,"22:00:54",1
"20/02/25","22:20",0.0,8.8,91.2,1009.7,319.5,1.6,2.1,318.0,0.00,7.5,9.0,"22:15:10",1
"20/02/25","22:30",0.0,8.8,91.4,1009.7,324.8,1.3,1.7,329.8,0.00,7.5,8.7,"22:24:40",1
"20/02/25","22:40",0.2,8.7,91.6,1009.5,272.8,0.7,1.7,322.1,0.00,7.5,8.9,"22:38:40",1
"20/02/25","22:50",0.4,8.8,91.8,1009.7,329.5,1.3,2.0,332.3,0.00,7.6,8.9,"22:45:46",1
"20/02/25","23:00",0.4,8.7,92.1,1009.5,326.0,1.1,1.4,318.9,0.00,7.5,8.9,"22:52:08",1
"20/02/25","23:10",0.4,8.6,92.4,1009.3,295.4,0.7,1.4,308.6,0.00,7.5,8.8,"23:00:40",1
"20/02/25","23:20",0.4,8.7,92.5,1009.5,314.0,1.1,1.8,327.8,0.00,7.6,8.7,"23:13:52",1
"20/02/25","23:30",0.6,8.6,92.8,1009.3,320.6,0.6,1.2,321.7,0.00,7.5,8.8,"23:21:44",1
"20/02/25","23:40",0.2,8.5,93.0,1009.0,334.2,0.7,1.3,331.9,0.00,7.5,8.9,"23:39:10",1
"20/02/25","23:50",0.6,8.5,93.2,1009.5,329.2,1.5,2.0,322.9,0.00,7.5,8.8,"23:41:06",1
"20/02/25","24:00",0.8,8.4,93.5,1008.6,196.8,0.6,1.0,148.4,0.00,7.5,8.9,"23:56:46",1
